Powrót do katalogu

DELTA 1 DEB

AktywnySSO
NORAD 42647·DEBRIS·🇺🇸 United States

Wystrzelony Jun 12, 1975 z Vandenberg Space Force Base

Loading…

Następne Przeloty (najbliższe 24 godziny)

TLE

Starzejące sięSource: Space-Track

Epoka: Sep 9, 2026, 03:44 UTC

1 42647U 75052MG  26252.15555699 -.00000005  00000-0  73618-4 0  9999
2 42647  99.7547  38.9398 0066144 100.1746 260.6847 13.32610810 94838

Śledź DELTA 1 DEB w czasie rzeczywistym z AllMySat

Download on the App Store